[[{"header":{"parameterUnit":"m.s-1","parameterCategory":2,"la1":30.2991,"la2":30.254,"lo1":-89.0895,"lo2":-89.0444,"dy":0.0017,"dx":0.0017,"nx":28,"ny":28,"refTime":"2024-08-14T21:00:00:Z","depth":"0","parameterNumber":2,"parameterNumberName":"U-component_of_CURRENTS"},"data":[0,0,0,0,0,0,0,0,0,0,0,0,0,0,0,0,0,0,0,0,0,0,0,0,0,0,0,0,0,0,0,0,0,0,0,0,0,0,0,0,0,0,0,0,0,0,0,0,0,0,0,0,0,0,0,0,0,0,0.3412,0.3412,0,0.3372,0.3371,0.337,0.331,0.3309,0.3308,0.3308,0.3409,0.3412,0.3415,0,0,0,0,0,0,0,0,0,0,0,0,0,0.3264,0.3268,0.3412,0.3412,0.3412,0.3372,0.3371,0.337,0.331,0.3309,0.3308,0.3308,0.3408,0.3411,0.3415,0,0,0,0,0,0,0,0,0,0,0,0,0,0.3282,0.3269,0.3412,0.3381,0.3378,0.3372,0.3371,0.337,0.331,0.3309,0.3308,0.3307,0.3406,0.3411,0.3416,0.3464,0,0,0.3431,0.3433,0,0,0,0,0,0,0,0,0.3281,0.3287,0.3386,0.3383,0.338,0.3349,0.3355,0.341,0.331,0.3331,0.3308,0.3307,0.3406,0.3411,0.3396,0.3469,0.3473,0.3431,0.3434,0.3436,0.3438,0,0,0,0,0,0,0,0.3281,0.3288,0.3391,0.3386,0.3382,0.331,0.3312,0.3364,0.3373,0.3329,0.3326,0.3329,0.3404,0.3391,0.3399,0.3475,0.3431,0.3435,0.3438,0.344,0.3646,0.3648,0,0,0,0,0,0,0.3307,0.3288,0.3393,0.339,0.3333,0.3314,0.3317,0.3356,0.3369,0.337,0.333,0.3327,0.3383,0.3393,0.3402,0.3484,0.3436,0.3441,0.3444,0.3643,0.3646,0.3649,0,0,0,0,0,0,0.3304,0.3318,0.3394,0.3339,0.3344,0.332,0.3363,0.3356,0.3335,0.3369,0.3372,0.3316,0.3383,0.3395,0.344,0.3487,0.3443,0.3447,0.364,0.3644,0.3648,0.3634,0,0,0,0,0,0,0.3301,0.3318,0.3336,0.3343,0.3349,0.3381,0.3364,0.3356,0.3342,0.3336,0.336,0.3367,0.3383,0.3432,0.3445,0.3493,0.3451,0.3637,0.3642,0.3647,0.3632,0.3637,0.3642,0,0,0,0,0,0.3296,0.3324,0.3338,0.3349,0.3383,0.3382,0.3377,0.335,0.3342,0.3329,0.335,0.3366,0.3473,0.3437,0.3451,0.3502,0.3635,0.3641,0.3646,0.3629,0.3636,0.3642,0,0,0,0,0,0,0.3252,0.3322,0.3337,0.3382,0.3381,0.3373,0.336,0.3352,0.3353,0.3356,0.3381,0.3391,0.3459,0.3485,0.3445,0.3581,0.3566,0.3574,0.3548,0.3555,0.356,0.3511,0.3455,0,0,0,0,0,0.3263,0.3312,0.3343,0.3373,0.3381,0.3373,0.3365,0.3356,0.3366,0.3362,0.3381,0.3429,0.3497,0.3522,0.3576,0.3636,0.3619,0.3687,0.3693,0.3696,0.367,0.3707,0.3711,0.3668,0.3668,0.3668,0,0,0.3255,0.3297,0.3324,0.3368,0.3368,0.3377,0.3364,0.3361,0.3365,0.3383,0.3393,0.3447,0.3519,0.3585,0.3621,0.3607,0.3695,0.3704,0.3706,0.3677,0.3713,0.3717,0.372,0.3672,0.3671,0.3671,0,0,0.3256,0.3304,0.3341,0.3349,0.3366,0.3368,0.3371,0.3373,0.3367,0.3392,0.3429,0.3488,0.3564,0.3618,0.3663,0.3733,0.3726,0.3781,0.3759,0.3796,0.3798,0.38,0.3743,0.374,0.3778,0.3778,0.3778,0,0.3233,0.3297,0.3337,0.336,0.3359,0.337,0.3375,0.3382,0.3392,0.3395,0.3396,0.3517,0.3577,0.3673,0.37,0.3742,0.3728,0.3722,0.3797,0.3799,0.3801,0.3743,0.3739,0.3778,0.3778,0.3778,0.3778,0,0.3267,0.3298,0.3311,0.3362,0.3363,0.3366,0.3391,0.339,0.3394,0.3403,0.347,0.354,0.3597,0.3664,0.3701,0.3777,0.3748,0.3799,0.3764,0.3803,0.374,0.3737,0.3778,0.3778,0.3778,0.3778,0,0,0.3242,0.3323,0.3319,0.3327,0.3361,0.3358,0.338,0.3391,0.3388,0.3428,0.343,0.3568,0.3583,0.3636,0.3709,0.3753,0.3758,0.3776,0.3778,0.3685,0.3767,0.3521,0.3493,0.3826,0.3827,0.3827,0.3699,0,0.3237,0.3285,0.3321,0.3323,0.3337,0.3349,0.3356,0.3372,0.3384,0.3389,0.3475,0.3513,0.3585,0.3609,0.3671,0.3752,0.3756,0.3782,0.377,0.3767,0.352,0.3485,0.3294,0.3145,0.3696,0.3695,0.3695,0,0.3241,0.3271,0.3293,0.33,0.3303,0.3301,0.3291,0.3299,0.3331,0.3337,0.3387,0.3433,0.351,0.3561,0.3657,0.3671,0.3698,0.3746,0.3743,0.351,0.3516,0.3209,0.3118,0.3049,0.3689,0.369,0.369,0,0.3196,0.3231,0.3245,0.3253,0.3279,0.3265,0.3261,0.3278,0.327,0.329,0.3274,0.3371,0.339,0.3482,0.3544,0.3609,0.3604,0.3711,0.3497,0.3478,0.3304,0.3266,0.3112,0.3738,0.3738,0.3739,0.3739,0,0.3173,0.317,0.3221,0.3223,0.3203,0.3223,0.3191,0.3197,0.3198,0.3174,0.3236,0.3223,0.3377,0.3389,0.3482,0.3417,0.3539,0.344,0.3426,0.3288,0.3252,0.3176,0.3184,0.3734,0.3735,0.3736,0.3737,0,0.3125,0.3167,0.3175,0.3195,0.3188,0.317,0.3141,0.3122,0.3113,0.3078,0.3069,0.3102,0.308,0.3157,0.3256,0.3271,0.3157,0.3229,0.2987,0.2944,0.2668,0.2683,0.2405,0.2364,0.2971,0.2964,0.2958,0,0.3115,0.312,0.3146,0.3147,0.3151,0.3125,0.3101,0.3084,0.305,0.2996,0.2968,0.2908,0.2841,0.2804,0.2815,0.2796,0.2846,0.259,0.2687,0.2551,0.2564,0.2555,0.2548,0.2454,0.2445,0.2437,0.2431,0,0.3098,0.3112,0.3141,0.3107,0.3088,0.3055,0.3007,0.2963,0.2919,0.286,0.2744,0.2671,0.2547,0.2398,0.2305,0.2322,0.2411,0.2423,0.2398,0.2189,0.206,0.2047,0.2595,0.2362,0.2369,0.2374,0.2378,0.238,0.3106,0.3087,0.3105,0.3032,0.3036,0.2951,0.2829,0.2784,0.2675,0.2466,0.2535,0.2285,0.2114,0.1943,0.1925,0.1719,0.1895,0.1701,0.1739,0.1749,0.1658,0.196,0.1647,0.165,0.1652,0.1654,0.1656,0,0.3039,0.3009,0.2999,0.2908,0.2828,0.2838,0.2722,0.2545,0.233,0.2212,0.2053,0.1734,0.1517,0.139,0.1192,0.1098,0.1173,0.106,0.109,0.1139,0.1493,0.142,0.0901,0.0901,0.0901,0.0901,0.0902,0.0902,0.3024,0.2948,0.2867,0.2684,0.2606,0.2388,0.2262,0.2062,0.1911,0.1556,0.1283,0.1188,0.1049,0.0827,0.0654,0.0649,0.0706,0.0548,0.0699,0.1028,0.1097,0.1162,0.1096,0.0517,0.0517,0.0305,0.0303,0.0301]},{"header":{"parameterUnit":"m.s-1","parameterCategory":2,"la1":30.2991,"la2":30.254,"lo1":-89.0895,"lo2":-89.0444,"dy":0.0017,"dx":0.0017,"nx":28,"ny":28,"refTime":"2024-08-14T21:00:00:Z","depth":"0","parameterNumber":3,"parameterNumberName":"V-component_of_CURRENTS"},"data":[0,0,0,0,0,0,0,0,0,0,0,0,0,0,0,0,0,0,0,0,0,0,0,0,0,0,0,0,0,0,0,0,0,0,0,0,0,0,0,0,0,0,0,0,0,0,0,0,0,0,0,0,0,0,0,0,0,0,0.0238,0.0239,0,0.0337,0.0338,0.0339,0.0364,0.0363,0.0363,0.0362,0.0596,0.0603,0.061,0,0,0,0,0,0,0,0,0,0,0,0,0,0.016,0.016,0.0238,0.0239,0.024,0.0337,0.0338,0.034,0.0364,0.0363,0.0362,0.0362,0.0594,0.0602,0.0611,0,0,0,0,0,0,0,0,0,0,0,0,0,0.0221,0.0161,0.0238,0.0263,0.0266,0.0336,0.0338,0.034,0.0364,0.0363,0.0362,0.0361,0.0591,0.0601,0.0612,0.0699,0,0,0.0644,0.0648,0,0,0,0,0,0,0,0,0.0217,0.0224,0.0258,0.0262,0.0265,0.0336,0.0396,0.0466,0.0365,0.0329,0.0362,0.0361,0.0522,0.0538,0.0559,0.071,0.072,0.0644,0.0651,0.0655,0.0658,0,0,0,0,0,0,0,0.0213,0.022,0.0279,0.026,0.0264,0.03,0.0307,0.041,0.0434,0.0332,0.0333,0.0343,0.0525,0.0549,0.0565,0.0723,0.0644,0.0653,0.066,0.0664,0.1034,0.1037,0,0,0,0,0,0,0.0195,0.0216,0.0275,0.0281,0.0236,0.0302,0.031,0.0315,0.043,0.0445,0.0343,0.0343,0.0531,0.0553,0.0574,0.0749,0.0655,0.0665,0.0671,0.103,0.1034,0.1038,0,0,0,0,0,0,0.0192,0.0199,0.0271,0.025,0.0261,0.0304,0.0311,0.0318,0.0337,0.0437,0.0455,0.0353,0.0531,0.0559,0.0676,0.0755,0.067,0.0679,0.1026,0.1031,0.1036,0.1058,0,0,0,0,0,0,0.019,0.0197,0.0201,0.0248,0.0262,0.0309,0.0312,0.0321,0.0344,0.0345,0.0453,0.0473,0.0533,0.066,0.0686,0.0768,0.0687,0.1021,0.1028,0.1035,0.1053,0.1064,0.1073,0,0,0,0,0,0.0187,0.0199,0.02,0.0208,0.0263,0.031,0.0321,0.0348,0.0345,0.0359,0.044,0.0469,0.0722,0.0671,0.0701,0.0788,0.1018,0.1026,0.1034,0.1049,0.1062,0.1073,0,0,0,0,0,0,0.0167,0.0204,0.0206,0.0228,0.0261,0.0313,0.0332,0.0347,0.0419,0.0425,0.0508,0.0537,0.0673,0.0727,0.0668,0.0916,0.0879,0.0893,0.088,0.0893,0.0903,0.0904,0.0696,0,0,0,0,0,0.0162,0.0183,0.0217,0.0237,0.0249,0.0288,0.031,0.0329,0.0394,0.0421,0.0499,0.0606,0.0734,0.0802,0.0904,0.1038,0.1024,0.1117,0.1127,0.1135,0.1159,0.1181,0.1193,0.1065,0.1065,0.1064,0,0,0.0164,0.0185,0.0198,0.0235,0.0261,0.0314,0.0299,0.0333,0.0404,0.0444,0.0562,0.0637,0.0773,0.0921,0.0989,0.0975,0.1158,0.1145,0.115,0.1171,0.119,0.1202,0.1212,0.107,0.1069,0.1068,0,0,0.0186,0.0188,0.0217,0.0249,0.0287,0.0324,0.033,0.0383,0.0427,0.0538,0.0604,0.0719,0.0887,0.101,0.1096,0.1228,0.1201,0.1261,0.1329,0.1349,0.1358,0.1367,0.1319,0.1323,0.1276,0.1276,0.1276,0,0.0184,0.0231,0.0233,0.0275,0.0323,0.033,0.0391,0.0447,0.0539,0.061,0.058,0.0854,0.0945,0.1174,0.1219,0.1255,0.1219,0.1264,0.1356,0.1365,0.1372,0.1322,0.1326,0.1278,0.1278,0.1278,0.1278,0,0.0237,0.0281,0.03,0.0367,0.0412,0.0462,0.0532,0.0593,0.0638,0.0707,0.0886,0.0993,0.1155,0.1213,0.1264,0.1412,0.1347,0.1347,0.1308,0.1385,0.1328,0.1331,0.1281,0.128,0.128,0.1279,0,0,0.023,0.0322,0.0332,0.0392,0.0469,0.0519,0.0638,0.0767,0.0861,0.0942,0.1077,0.1286,0.1298,0.1397,0.1465,0.1503,0.1513,0.1446,0.1446,0.1367,0.1488,0.1419,0.1414,0.1499,0.1501,0.1503,0.1404,0,0.0279,0.0384,0.0422,0.0549,0.0618,0.0679,0.0795,0.0909,0.0997,0.1116,0.1237,0.1369,0.1385,0.1442,0.1494,0.1517,0.1531,0.1536,0.1455,0.1453,0.1356,0.1422,0.1363,0.127,0.1408,0.1408,0.1408,0,0.0338,0.0404,0.0528,0.0672,0.0704,0.0778,0.0959,0.1057,0.1223,0.1283,0.1412,0.1465,0.1595,0.1546,0.1609,0.1594,0.1551,0.1536,0.1532,0.1472,0.1394,0.1231,0.1271,0.1292,0.1413,0.1413,0.1413,0,0.0373,0.0494,0.0603,0.0649,0.0794,0.0873,0.0951,0.1115,0.1206,0.1362,0.1404,0.1559,0.1592,0.1603,0.1579,0.1577,0.1571,0.1563,0.1462,0.1452,0.1397,0.1381,0.1432,0.1584,0.1584,0.1584,0.1584,0,0.0451,0.0538,0.062,0.0686,0.0816,0.0896,0.1043,0.1146,0.127,0.1366,0.1462,0.1532,0.1595,0.1603,0.1582,0.1522,0.1566,0.1486,0.1446,0.14,0.1385,0.1398,0.1418,0.158,0.1581,0.1582,0.1583,0,0.0509,0.0564,0.0686,0.0809,0.0843,0.0935,0.1054,0.1149,0.1241,0.1351,0.1379,0.149,0.1488,0.1518,0.1517,0.1496,0.1456,0.1426,0.1334,0.1288,0.1228,0.1251,0.1243,0.1285,0.1307,0.1305,0.1304,0,0.0574,0.0628,0.0743,0.0797,0.0853,0.0962,0.1032,0.1138,0.1206,0.1318,0.1354,0.1389,0.1421,0.1388,0.137,0.1314,0.1358,0.1214,0.1247,0.1235,0.1233,0.1246,0.1286,0.1151,0.1148,0.1146,0.1144,0,0.068,0.0693,0.0784,0.0842,0.0914,0.0999,0.1079,0.1119,0.1216,0.1267,0.1309,0.133,0.1309,0.1255,0.1191,0.1162,0.1229,0.1165,0.1204,0.1173,0.1143,0.1158,0.1157,0.1124,0.1126,0.1128,0.1129,0.1129,0.0755,0.0799,0.0852,0.0903,0.0965,0.1002,0.104,0.1092,0.1146,0.1181,0.1228,0.1207,0.1174,0.1093,0.1065,0.1001,0.1074,0.0991,0.1026,0.1045,0.1096,0.1023,0.0926,0.0927,0.0927,0.0928,0.0928,0,0.0833,0.0844,0.0896,0.0943,0.0952,0.0981,0.1042,0.1037,0.1041,0.1087,0.1091,0.1024,0.0968,0.0937,0.0865,0.0868,0.0918,0.0892,0.0932,0.099,0.0955,0.0962,0.0807,0.0807,0.0807,0.0807,0.0807,0.0807,0.0889,0.0915,0.0886,0.0887,0.0898,0.0886,0.0896,0.0889,0.0907,0.0867,0.0826,0.0834,0.0845,0.08,0.0801,0.082,0.0928,0.0869,0.0985,0.0977,0.099,0.1003,0.1018,0.0877,0.0878,0.1009,0.101,0.101]}],[{"header":{"parameterUnit":"m.s-1","parameterCategory":2,"la1":30.2991,"la2":30.254,"lo1":-89.0895,"lo2":-89.0444,"dy":0.0017,"dx":0.0017,"nx":28,"ny":28,"refTime":"2024-08-14T21:00:00:Z","depth":"2","parameterNumber":2,"parameterNumberName":"U-component_of_CURRENTS"},"data":[0,0,0,0,0,0,0,0,0,0,0,0,0,0,0,0,0,0,0,0,0,0,0,0,0,0,0,0,0,0,0,0,0,0,0,0,0,0,0,0,0,0,0,0,0,0,0,0,0,0,0,0,0,0,0,0,0,0,0.1389,0.1392,0,0.1548,0.1549,0.155,0.1692,0.1694,0.1697,0.1699,0.1886,0.1888,0.1891,0,0,0,0,0,0,0,0,0,0,0,0,0,0.1316,0.1315,0.1389,0.1392,0.1395,0.1548,0.1549,0.1551,0.1691,0.1694,0.1697,0.17,0.1885,0.1888,0.1891,0,0,0,0,0,0,0,0,0,0,0,0,0,0.1388,0.1314,0.1389,0.1491,0.1503,0.1548,0.155,0.1551,0.1691,0.1694,0.1698,0.1702,0.1884,0.1888,0.1892,0.1838,0,0,0.1903,0.1905,0,0,0,0,0,0,0,0,0.1384,0.1389,0.1473,0.1484,0.1497,0.1613,0.1593,0.1652,0.169,0.1608,0.1699,0.1704,0.1801,0.1812,0.1818,0.1847,0.1855,0.1904,0.1906,0.1908,0.1909,0,0,0,0,0,0,0,0.1378,0.1384,0.1442,0.1476,0.1491,0.1567,0.1579,0.1604,0.1674,0.1616,0.1629,0.1661,0.1807,0.1814,0.1824,0.1858,0.1904,0.1907,0.191,0.1911,0.2178,0.2182,0,0,0,0,0,0,0.1369,0.1378,0.1437,0.1448,0.146,0.1566,0.1579,0.1564,0.1673,0.1697,0.1658,0.1668,0.1806,0.1819,0.1831,0.1999,0.1908,0.1911,0.1914,0.2173,0.2179,0.2184,0,0,0,0,0,0,0.1365,0.137,0.1431,0.1429,0.1443,0.1563,0.1545,0.1565,0.1622,0.1707,0.173,0.1702,0.1809,0.1826,0.1936,0.1999,0.1913,0.1917,0.2168,0.2175,0.2182,0.2191,0,0,0,0,0,0,0.1361,0.1366,0.1371,0.1425,0.1443,0.1508,0.1543,0.1566,0.1638,0.1653,0.175,0.1769,0.1814,0.193,0.194,0.2003,0.192,0.2161,0.2171,0.2179,0.2184,0.2197,0.2208,0,0,0,0,0,0.1357,0.1365,0.1368,0.1379,0.1436,0.151,0.1526,0.1619,0.1637,0.1678,0.1762,0.1769,0.1996,0.1935,0.1946,0.2012,0.2157,0.2168,0.2179,0.2179,0.2195,0.2208,0,0,0,0,0,0,0.1384,0.1381,0.1388,0.1405,0.1471,0.154,0.1596,0.1626,0.1713,0.1746,0.1797,0.1823,0.1942,0.1984,0.1916,0.2129,0.2089,0.2102,0.2086,0.2101,0.2113,0.2103,0.1923,0,0,0,0,0,0.1371,0.1355,0.1396,0.1426,0.1448,0.151,0.1556,0.1615,0.1693,0.1736,0.1793,0.1889,0.1981,0.2048,0.2117,0.2209,0.2208,0.2277,0.2289,0.2298,0.2306,0.2415,0.2435,0.2219,0.2219,0.2219,0,0,0.1401,0.1398,0.1398,0.1428,0.1476,0.1508,0.1548,0.1637,0.1683,0.1739,0.1824,0.1907,0.2012,0.2135,0.2196,0.2188,0.2342,0.2312,0.2318,0.2321,0.2428,0.2448,0.2466,0.2227,0.2225,0.2224,0,0,0.1439,0.1435,0.1425,0.1459,0.1532,0.1561,0.1585,0.1656,0.1716,0.1797,0.1874,0.2004,0.2103,0.222,0.2284,0.2403,0.2384,0.2445,0.2511,0.2616,0.2633,0.2648,0.2574,0.2582,0.2474,0.2474,0.2474,0,0.1478,0.1458,0.1457,0.1466,0.1512,0.1572,0.161,0.1658,0.1766,0.1835,0.1843,0.2071,0.2145,0.2333,0.24,0.2424,0.2429,0.2431,0.2625,0.2641,0.2656,0.2577,0.2587,0.2476,0.2475,0.2475,0.2475,0,0.1492,0.1498,0.1516,0.1508,0.1553,0.1618,0.1669,0.1737,0.1794,0.1858,0.2039,0.2156,0.2316,0.2369,0.2417,0.2602,0.2542,0.2597,0.2565,0.2677,0.2587,0.2596,0.2478,0.2477,0.2477,0.2476,0,0,0.1531,0.1517,0.1531,0.1543,0.1589,0.1636,0.1705,0.1808,0.1891,0.1999,0.2126,0.231,0.24,0.2484,0.2585,0.2691,0.2763,0.2706,0.271,0.2585,0.2877,0.2535,0.251,0.287,0.2874,0.2878,0.273,0,0.156,0.1568,0.1558,0.1616,0.1635,0.1696,0.1756,0.1863,0.1958,0.2085,0.2249,0.2397,0.2437,0.255,0.2665,0.2757,0.2809,0.2789,0.2829,0.2826,0.2475,0.252,0.2436,0.2276,0.2739,0.274,0.2741,0,0.1584,0.1582,0.1627,0.167,0.1689,0.1736,0.1876,0.1942,0.2117,0.2202,0.2381,0.2482,0.2668,0.2688,0.285,0.2843,0.2864,0.2897,0.2894,0.2586,0.2506,0.2269,0.2275,0.2757,0.2755,0.2754,0.2753,0,0.163,0.1644,0.1686,0.1701,0.175,0.1818,0.187,0.2014,0.2109,0.2303,0.2388,0.2592,0.2695,0.2811,0.2831,0.2886,0.2925,0.3007,0.2686,0.2655,0.2593,0.2548,0.3109,0.311,0.311,0.311,0.3111,0,0.1674,0.1725,0.1717,0.1752,0.1852,0.1861,0.2008,0.2097,0.2234,0.2346,0.2475,0.2569,0.275,0.2778,0.2826,0.2702,0.2908,0.2664,0.2623,0.2577,0.2535,0.2997,0.2986,0.3105,0.3106,0.3107,0.3108,0,0.1786,0.1759,0.183,0.1866,0.1889,0.1988,0.2091,0.2183,0.2276,0.2422,0.2484,0.258,0.2559,0.2594,0.2694,0.2621,0.2592,0.2498,0.2305,0.2242,0.2246,0.2239,0.2154,0.2141,0.2131,0.2122,0.2114,0,0.1857,0.1892,0.1947,0.2,0.2044,0.2143,0.221,0.2264,0.2328,0.2403,0.246,0.2444,0.2383,0.2246,0.2181,0.206,0.2254,0.1851,0.1954,0.2193,0.2164,0.2173,0.218,0.1855,0.1846,0.1838,0.1832,0,0.2046,0.2074,0.2137,0.2157,0.2228,0.2277,0.2338,0.2352,0.2376,0.2382,0.231,0.2234,0.2079,0.186,0.1626,0.1594,0.1861,0.1679,0.2093,0.2055,0.1886,0.1863,0.1887,0.1766,0.1773,0.1778,0.1781,0.1784,0.2252,0.2294,0.23,0.23,0.2372,0.2314,0.2253,0.2235,0.2166,0.2014,0.2071,0.1822,0.1785,0.1316,0.1232,0.116,0.1305,0.1303,0.1341,0.1383,0.1321,0.1138,0.0857,0.0858,0.0859,0.086,0.0861,0,0.2363,0.2344,0.2399,0.2339,0.2309,0.232,0.2244,0.2074,0.1827,0.1749,0.157,0.1289,0.1061,0.1028,0.0826,0.0734,0.0916,0.0699,0.1007,0.1067,0.1122,0.1065,0.0524,0.0523,0.0522,0.0521,0,0,0.2445,0.2416,0.2302,0.2178,0.2151,0.1974,0.1837,0.1613,0.1464,0.1151,0.0969,0.0931,0.0951,0.0719,0.0685,0.0578,0.0838,0.0547,0.0819,0.1244,0.1299,0.1456,0.1425,0,0,0,0,0]},{"header":{"parameterUnit":"m.s-1","parameterCategory":2,"la1":30.2991,"la2":30.254,"lo1":-89.0895,"lo2":-89.0444,"dy":0.0017,"dx":0.0017,"nx":28,"ny":28,"refTime":"2024-08-14T21:00:00:Z","depth":"2","parameterNumber":3,"parameterNumberName":"V-component_of_CURRENTS"},"data":[0,0,0,0,0,0,0,0,0,0,0,0,0,0,0,0,0,0,0,0,0,0,0,0,0,0,0,0,0,0,0,0,0,0,0,0,0,0,0,0,0,0,0,0,0,0,0,0,0,0,0,0,0,0,0,0,0,0,-0.026,-0.0258,0,-0.0124,-0.0123,-0.0122,-0.0132,-0.0133,-0.0135,-0.0136,-0.0155,-0.0154,-0.0153,0,0,0,0,0,0,0,0,0,0,0,0,0,-0.0359,-0.0359,-0.026,-0.0258,-0.0255,-0.0124,-0.0123,-0.0122,-0.0131,-0.0133,-0.0135,-0.0137,-0.0155,-0.0154,-0.0153,0,0,0,0,0,0,0,0,0,0,0,0,0,-0.0284,-0.0359,-0.026,-0.0241,-0.0238,-0.0125,-0.0123,-0.0121,-0.0131,-0.0133,-0.0136,-0.0138,-0.0155,-0.0154,-0.0153,-0.0097,0,0,-0.0148,-0.0147,0,0,0,0,0,0,0,0,-0.0289,-0.0281,-0.0246,-0.0242,-0.0238,-0.0143,-0.0164,-0.0119,-0.013,-0.0177,-0.0136,-0.0139,-0.016,-0.0158,-0.0132,-0.0097,-0.0098,-0.0148,-0.0147,-0.0146,-0.0146,0,0,0,0,0,0,0,-0.0294,-0.0286,-0.0211,-0.0243,-0.0238,-0.0181,-0.0175,-0.0155,-0.0164,-0.0173,-0.0172,-0.0148,-0.016,-0.0134,-0.0133,-0.0099,-0.0148,-0.0147,-0.0146,-0.0145,-0.0047,-0.0046,0,0,0,0,0,0,-0.0307,-0.0292,-0.0215,-0.0207,-0.0264,-0.0178,-0.0171,-0.0175,-0.016,-0.0158,-0.0146,-0.0149,-0.0135,-0.0135,-0.0134,-0.0085,-0.0146,-0.0145,-0.0144,-0.0049,-0.0047,-0.0045,0,0,0,0,0,0,-0.031,-0.0303,-0.0221,-0.024,-0.0226,-0.0174,-0.0178,-0.0171,-0.015,-0.0138,-0.014,-0.0133,-0.0137,-0.0136,-0.0129,-0.0086,-0.0144,-0.0143,-0.0051,-0.0048,-0.0046,0.0023,0,0,0,0,0,0,-0.0314,-0.0305,-0.0316,-0.0242,-0.0225,-0.0168,-0.0175,-0.0167,-0.0129,-0.0132,-0.0126,-0.013,-0.0139,-0.0131,-0.0128,-0.0085,-0.0142,-0.0053,-0.005,-0.0047,0.0019,0.0028,0.0035,0,0,0,0,0,-0.0319,-0.0319,-0.0319,-0.0308,-0.0242,-0.0166,-0.0153,-0.0126,-0.0126,-0.0116,-0.0116,-0.013,-0.0108,-0.0129,-0.0125,-0.0081,-0.0055,-0.0051,-0.0047,0.0015,0.0026,0.0035,0,0,0,0,0,0,-0.0369,-0.0317,-0.0316,-0.0304,-0.0247,-0.0167,-0.0152,-0.0118,-0.0102,-0.0121,-0.0113,-0.0116,-0.0088,-0.0095,-0.0118,-0.0043,-0.008,-0.0075,-0.0034,-0.0024,-0.0016,0.0004,-0.0141,0,0,0,0,0,-0.0383,-0.0374,-0.0309,-0.0298,-0.0279,-0.0213,-0.0179,-0.0157,-0.0122,-0.0117,-0.0103,-0.0092,-0.0061,-0.0057,-0.0043,-0.0004,0.0004,0.0029,0.0037,0.0044,0.0064,0.0135,0.0152,-0.0032,-0.0032,-0.0032,0,0,-0.0393,-0.0366,-0.0359,-0.0307,-0.027,-0.0224,-0.0202,-0.0157,-0.0117,-0.0122,-0.0087,-0.0066,-0.0045,-0.0004,0.0009,-0.001,0.0093,0.0049,0.0055,0.0071,0.0141,0.0159,0.0175,-0.003,-0.003,-0.003,0,0,-0.0384,-0.0395,-0.0374,-0.0336,-0.0279,-0.0238,-0.0224,-0.015,-0.0129,-0.0085,-0.0065,-0.0012,0.0007,0.006,0.0083,0.0152,0.0136,0.0147,0.0208,0.0277,0.0293,0.0308,0.0304,0.0317,0.0151,0.0151,0.0152,0,-0.0397,-0.0372,-0.0352,-0.0319,-0.0283,-0.0244,-0.0201,-0.0162,-0.0092,-0.0047,-0.0085,0.0042,0.005,0.0165,0.0182,0.0176,0.0179,0.0166,0.029,0.0304,0.0318,0.0311,0.0325,0.0155,0.0155,0.0154,0.0154,0,-0.036,-0.0347,-0.0333,-0.0289,-0.0251,-0.0212,-0.0156,-0.0115,-0.0089,-0.0027,0.0072,0.0109,0.0199,0.0213,0.0211,0.0337,0.0292,0.0292,0.0264,0.0341,0.0327,0.0341,0.0161,0.0159,0.0158,0.0157,0,0,-0.037,-0.0315,-0.0315,-0.0285,-0.0236,-0.0188,-0.0138,-0.0042,0.0034,0.0078,0.0199,0.0267,0.0318,0.035,0.0386,0.0441,0.0523,0.0403,0.0405,0.0399,0.0622,0.0527,0.0531,0.0541,0.0544,0.0547,0.0559,0,-0.0344,-0.0282,-0.0262,-0.0199,-0.0161,-0.0122,-0.0058,0.0024,0.0088,0.0205,0.0281,0.0392,0.0362,0.0429,0.0484,0.0531,0.0568,0.0517,0.0549,0.0549,0.0458,0.0549,0.0488,0.049,0.0572,0.0574,0.0576,0,-0.0317,-0.0275,-0.0213,-0.0133,-0.0112,-0.0067,0.0052,0.0118,0.0267,0.0326,0.0447,0.0512,0.0641,0.0591,0.0694,0.0657,0.0647,0.0652,0.0653,0.0558,0.0483,0.0436,0.0511,0.0598,0.0596,0.0595,0.0593,0,-0.0315,-0.0243,-0.0192,-0.017,-0.0073,-0.0026,0.0035,0.0165,0.0259,0.0429,0.052,0.0655,0.075,0.0775,0.0772,0.0749,0.0843,0.0816,0.0713,0.0703,0.0657,0.0636,0.0886,0.0886,0.0886,0.0886,0.0885,0,-0.0296,-0.0255,-0.0184,-0.0152,-0.0049,-0.0006,0.0128,0.0215,0.0365,0.0503,0.0598,0.0727,0.0804,0.0862,0.0824,0.0802,0.0885,0.0746,0.0727,0.067,0.0653,0.0755,0.074,0.0886,0.0886,0.0886,0.0886,0,-0.0291,-0.0262,-0.0176,-0.0078,-0.0043,0.0037,0.0184,0.0294,0.0406,0.059,0.0654,0.0818,0.0872,0.0884,0.0934,0.0875,0.0857,0.0817,0.0704,0.0672,0.0648,0.0636,0.0727,0.0725,0.0722,0.0721,0.0719,0,-0.0269,-0.0232,-0.0116,-0.004,0.0009,0.0123,0.0216,0.0324,0.0437,0.0636,0.0733,0.0846,0.091,0.0912,0.0842,0.0755,0.0795,0.066,0.0622,0.0673,0.0645,0.0637,0.0628,0.057,0.0567,0.0565,0.0563,0,-0.0181,-0.0151,-0.0065,0.0047,0.0144,0.0255,0.0376,0.0457,0.0587,0.0695,0.0834,0.0885,0.088,0.0802,0.0688,0.0625,0.0668,0.0609,0.076,0.0603,0.0522,0.0494,0.0492,0.0544,0.0545,0.0547,0.0548,0.0549,-0.0071,-0.0005,0.0089,0.0179,0.0278,0.0368,0.0436,0.0537,0.065,0.0763,0.0829,0.0839,0.0823,0.0615,0.0553,0.0476,0.049,0.0466,0.0475,0.0486,0.0451,0.0369,0.0351,0.0352,0.0353,0.0353,0.0354,0,0.0095,0.0136,0.0225,0.0327,0.0384,0.0415,0.0534,0.0559,0.0627,0.0705,0.0746,0.0652,0.0575,0.0535,0.0371,0.0308,0.033,0.0309,0.0357,0.0373,0.0388,0.0352,0.0224,0.0224,0.0224,0.0225,0,0,0.0204,0.03,0.0278,0.0373,0.0427,0.0481,0.0517,0.0533,0.0564,0.0571,0.0556,0.0585,0.0546,0.0431,0.036,0.028,0.0344,0.0264,0.0358,0.0434,0.0451,0.0452,0.0409,0,0,0,0,0]}],[{"header":{"parameterUnit":"m.s-1","parameterCategory":2,"la1":30.2991,"la2":30.254,"lo1":-89.0895,"lo2":-89.0444,"dy":0.0017,"dx":0.0017,"nx":28,"ny":28,"refTime":"2024-08-14T21:00:00:Z","depth":"4","parameterNumber":2,"parameterNumberName":"U-component_of_CURRENTS"},"data":[0,0,0,0,0,0,0,0,0,0,0,0,0,0,0,0,0,0,0,0,0,0,0,0,0,0,0,0,0,0,0,0,0,0,0,0,0,0,0,0,0,0,0,0,0,0,0,0,0,0,0,0,0,0,0,0,0,0,-0.0249,-0.0247,0,-0.0175,-0.0175,-0.0175,-0.0135,-0.0134,-0.0133,-0.0132,-0.0244,-0.0248,-0.0251,0,0,0,0,0,0,0,0,0,0,0,0,0,-0.0301,-0.0302,-0.0249,-0.0247,-0.0246,-0.0175,-0.0175,-0.0175,-0.0135,-0.0134,-0.0133,-0.0132,-0.0243,-0.0247,-0.0252,0,0,0,0,0,0,0,0,0,0,0,0,0,-0.0266,-0.0302,-0.0249,-0.0211,-0.0206,-0.0175,-0.0175,-0.0175,-0.0135,-0.0134,-0.0133,-0.0131,-0.0241,-0.0247,-0.0252,-0.0314,0,0,-0.027,-0.0272,0,0,0,0,0,0,0,0,-0.0269,-0.0266,-0.0218,-0.0213,-0.0208,-0.0155,-0.0234,-0.0228,-0.0136,-0.0171,-0.0132,-0.0131,-0.0227,-0.0234,-0.0232,-0.0319,-0.0324,-0.027,-0.0274,-0.0276,-0.0278,0,0,0,0,0,0,0,-0.0271,-0.0268,-0.0228,-0.0216,-0.021,-0.0178,-0.0173,-0.0232,-0.0218,-0.0168,-0.0163,-0.0141,-0.0227,-0.0227,-0.0235,-0.0326,-0.027,-0.0275,-0.0279,-0.0281,-0.0301,-0.0298,0,0,0,0,0,0,-0.0268,-0.0271,-0.023,-0.0225,-0.0226,-0.0178,-0.0173,-0.0181,-0.0213,-0.0212,-0.0143,-0.014,-0.0218,-0.0228,-0.0239,-0.0199,-0.0276,-0.0282,-0.0285,-0.0303,-0.03,-0.0297,0,0,0,0,0,0,-0.027,-0.0266,-0.0233,-0.0238,-0.023,-0.0178,-0.0187,-0.018,-0.0148,-0.019,-0.0194,-0.0113,-0.0217,-0.0231,-0.0247,-0.0208,-0.0284,-0.0289,-0.0307,-0.0302,-0.0298,-0.0194,0,0,0,0,0,0,-0.0272,-0.0268,-0.0269,-0.0239,-0.0229,-0.0206,-0.0187,-0.0179,-0.0134,-0.0129,-0.0168,-0.0178,-0.0217,-0.0238,-0.0253,-0.0217,-0.0294,-0.0311,-0.0305,-0.03,-0.0201,-0.0186,-0.0174,0,0,0,0,0,-0.0275,-0.0288,-0.0271,-0.0264,-0.0235,-0.0205,-0.0199,-0.0162,-0.0134,-0.0128,-0.0129,-0.0175,-0.0213,-0.0242,-0.0259,-0.0224,-0.0313,-0.0306,-0.03,-0.0207,-0.0189,-0.0174,0,0,0,0,0,0,-0.0312,-0.0283,-0.0264,-0.0267,-0.0229,-0.0195,-0.0184,-0.0146,-0.014,-0.0131,-0.0166,-0.0177,-0.017,-0.0208,-0.0239,-0.0205,-0.0261,-0.0257,-0.0183,-0.0168,-0.0154,-0.0145,-0.0298,0,0,0,0,0,-0.0319,-0.0324,-0.028,-0.028,-0.0263,-0.0216,-0.0194,-0.016,-0.0145,-0.0137,-0.0149,-0.0156,-0.0162,-0.0173,-0.0198,-0.0205,-0.0262,-0.018,-0.0167,-0.0155,-0.0154,-0.0212,-0.0205,-0.0275,-0.0276,-0.0276,0,0,-0.0333,-0.0315,-0.0316,-0.0286,-0.026,-0.023,-0.0203,-0.0163,-0.0122,-0.0159,-0.0123,-0.0126,-0.0152,-0.0139,-0.0137,-0.0166,-0.0158,-0.0147,-0.0138,-0.0143,-0.0205,-0.0199,-0.0193,-0.0271,-0.0272,-0.0273,0,0,-0.0358,-0.0347,-0.0352,-0.0322,-0.0266,-0.0231,-0.0209,-0.0155,-0.0118,-0.0072,-0.0077,-0.0053,-0.006,-0.0069,-0.0073,-0.0006,-0.0088,0.0007,0.0075,0.0019,0.0023,0.0026,-0.0021,-0.0023,0.0016,0.0016,0.0017,0,-0.0367,-0.0361,-0.0345,-0.033,-0.0284,-0.0226,-0.0188,-0.0157,-0.0102,-0.0063,-0.0043,-0.0001,-0.0024,-0.0009,0.0045,0.0019,-0.002,0.001,0.0032,0.0034,0.0034,-0.0014,-0.0018,0.0022,0.0022,0.0021,0.002,0,-0.0385,-0.0367,-0.0365,-0.0322,-0.0282,-0.024,-0.0175,-0.0123,-0.0044,0.0006,0.0071,0.0064,0.01,0.011,0.0106,0.0121,0.0089,0.0049,-0.0019,0.0047,-0.0007,-0.0013,0.0031,0.0029,0.0027,0.0025,0,0,-0.0409,-0.0382,-0.0371,-0.0333,-0.0257,-0.0218,-0.0151,-0.0059,0.0002,0.0073,0.0136,0.0187,0.0216,0.0215,0.0204,0.0174,0.0167,0.014,0.0134,0.0076,0.0054,0.0118,0.0116,0.0128,0.0128,0.0127,0.0019,0,-0.0402,-0.0381,-0.0351,-0.0282,-0.0247,-0.0165,-0.0102,-0.0015,0.0066,0.0125,0.0161,0.0207,0.0242,0.0271,0.0259,0.0168,0.0155,0.0201,0.0014,0.0009,0.0041,0.0112,0.0125,0.0013,0.0012,0.0011,0.001,0,-0.0395,-0.0375,-0.0326,-0.023,-0.0204,-0.0137,0.0004,0.0061,0.0142,0.0201,0.0264,0.0277,0.0281,0.0285,0.0202,0.0232,0.0181,0.0111,0.0103,0.0118,0.0061,-0.0069,-0.0003,-0.0002,-0.0001,-0.0,0.0001,0,-0.039,-0.0331,-0.0282,-0.0254,-0.0159,-0.0077,0.0005,0.011,0.0165,0.0238,0.0275,0.029,0.0288,0.0225,0.0148,0.0175,0.0003,0.0004,0.0011,0.0013,-0.0067,-0.0069,-0.0051,-0.0051,-0.0051,-0.005,-0.005,0,-0.0361,-0.0324,-0.0264,-0.0233,-0.0118,-0.0053,0.0074,0.0153,0.0221,0.0274,0.0318,0.0329,0.0276,0.019,0.0123,0.005,-0.001,0.0039,-0.0002,-0.0014,-0.0009,-0.0071,-0.0072,-0.0054,-0.0054,-0.0053,-0.0052,0,-0.0357,-0.0334,-0.0278,-0.0174,-0.0115,-0.0027,0.0125,0.0181,0.0257,0.0309,0.033,0.0335,0.0283,0.0191,0.0047,0.0027,-0.0082,-0.01,-0.0113,-0.0158,-0.0021,-0.0015,-0.0061,-0.0059,-0.0058,-0.0057,-0.0056,0,-0.0353,-0.0335,-0.0242,-0.017,-0.0099,0.0034,0.0117,0.0209,0.0265,0.0313,0.0321,0.0299,0.0307,0.0138,0.0053,-0.0069,-0.0067,-0.0134,-0.0023,0.0018,-0.0019,-0.0014,-0.001,-0.0054,-0.0054,-0.0053,-0.0053,0,-0.0341,-0.0324,-0.0258,-0.0124,-0.0015,0.003,0.0165,0.0199,0.0279,0.0331,0.0352,0.0327,0.0269,0.0187,0.0087,-0.0007,-0.0097,-0.0119,-0.012,-0.0016,0.0025,-0.0011,-0.0008,-0.0049,-0.0049,-0.005,-0.005,0,-0.0311,-0.0255,-0.0164,-0.0037,0.0034,0.0026,0.0085,0.0177,0.0226,0.0324,0.0313,0.0282,0.0283,0.0215,0.0093,0.0043,0.0084,0.0065,0.0055,0.0049,0.0137,0.0209,0.0171,0,0,0,0,0,-0.0231,-0.0154,-0.0073,0.0037,0.0059,0.0096,0.0118,0.0155,0.024,0.0277,0.0321,0.0293,0.024,0.0193,0.0167,0.011,0.003,0.0075,-0.0008,-0.0024,-0.0029,0.0065,0,0,0,0,0,0,-0.0164,-0.0064,-0.0053,0.0022,0.0106,0.0112,0.0101,0.0134,0.0184,0.028,0.0249,0.0327,0.0254,0.0293,0.0193,0.0178,0.0124,0.0076,0.0076,-0.0021,-0.0025,-0.003,0.0065,0,0,0,0,0]},{"header":{"parameterUnit":"m.s-1","parameterCategory":2,"la1":30.2991,"la2":30.254,"lo1":-89.0895,"lo2":-89.0444,"dy":0.0017,"dx":0.0017,"nx":28,"ny":28,"refTime":"2024-08-14T21:00:00:Z","depth":"4","parameterNumber":3,"parameterNumberName":"V-component_of_CURRENTS"},"data":[0,0,0,0,0,0,0,0,0,0,0,0,0,0,0,0,0,0,0,0,0,0,0,0,0,0,0,0,0,0,0,0,0,0,0,0,0,0,0,0,0,0,0,0,0,0,0,0,0,0,0,0,0,0,0,0,0,0,0.026,0.0261,0,0.0291,0.0291,0.0291,0.0287,0.0286,0.0286,0.0286,0.0229,0.0228,0.0227,0,0,0,0,0,0,0,0,0,0,0,0,0,0.0222,0.0223,0.026,0.0261,0.0262,0.0291,0.0291,0.0291,0.0287,0.0286,0.0286,0.0286,0.023,0.0228,0.0227,0,0,0,0,0,0,0,0,0,0,0,0,0,0.0242,0.0223,0.026,0.0265,0.0266,0.0291,0.0291,0.0291,0.0287,0.0286,0.0286,0.0286,0.023,0.0228,0.0226,0.0221,0,0,0.022,0.022,0,0,0,0,0,0,0,0,0.024,0.0243,0.0264,0.0265,0.0266,0.0287,0.0257,0.0265,0.0287,0.0276,0.0286,0.0286,0.0243,0.024,0.0243,0.0219,0.0216,0.022,0.0219,0.0218,0.0218,0,0,0,0,0,0,0,0.0239,0.0241,0.0269,0.0265,0.0266,0.0274,0.0276,0.0259,0.0257,0.0277,0.0277,0.0286,0.0242,0.0245,0.0242,0.0216,0.022,0.0219,0.0217,0.0217,0.0099,0.0097,0,0,0,0,0,0,0.0241,0.024,0.0268,0.0271,0.0256,0.0276,0.0277,0.0278,0.0259,0.0257,0.0286,0.0285,0.0249,0.0244,0.024,0.0184,0.0218,0.0216,0.0215,0.0101,0.0099,0.0097,0,0,0,0,0,0,0.024,0.0243,0.0267,0.0259,0.0263,0.0277,0.0278,0.0279,0.0277,0.0267,0.0263,0.0282,0.0248,0.0242,0.0215,0.0183,0.0216,0.0214,0.0103,0.01,0.0098,0.0103,0,0,0,0,0,0,0.0238,0.0242,0.0272,0.0259,0.0264,0.0279,0.0279,0.028,0.0285,0.0284,0.0263,0.0258,0.0247,0.0218,0.0213,0.0181,0.0212,0.0106,0.0102,0.0099,0.0106,0.0101,0.0097,0,0,0,0,0,0.0237,0.027,0.0273,0.0279,0.0295,0.0279,0.0282,0.0289,0.0285,0.0285,0.0265,0.0258,0.019,0.0216,0.021,0.0177,0.0108,0.0103,0.0099,0.0107,0.0102,0.0097,0,0,0,0,0,0,0.0265,0.0273,0.0276,0.031,0.0295,0.028,0.0309,0.0287,0.0274,0.0277,0.0251,0.0245,0.0201,0.0187,0.0216,0.0127,0.014,0.0134,0.0148,0.0142,0.0138,0.0169,0.0211,0,0,0,0,0,0.0288,0.031,0.0301,0.0322,0.0331,0.0315,0.0321,0.0304,0.0284,0.0279,0.0256,0.0223,0.018,0.0162,0.0132,0.0099,0.0105,0.0064,0.006,0.0057,0.0074,0.0025,0.0019,0.0082,0.0082,0.0082,0,0,0.0297,0.0311,0.0321,0.0331,0.0335,0.032,0.0317,0.0316,0.0282,0.0274,0.0242,0.0214,0.0166,0.0123,0.0101,0.0109,0.0048,0.0051,0.0049,0.0069,0.002,0.0014,0.0009,0.0079,0.008,0.008,0,0,0.0308,0.0348,0.0364,0.0356,0.0361,0.0344,0.0336,0.0313,0.0297,0.0265,0.0229,0.0182,0.0145,0.0088,0.0057,0.0006,0.0026,-0.0008,0.0,-0.0049,-0.0053,-0.0057,-0.0015,-0.0015,-0.0009,-0.0009,-0.0009,0,0.0324,0.0339,0.0362,0.0364,0.0363,0.0345,0.033,0.0306,0.0262,0.0245,0.0256,0.0156,0.012,0.0028,0.0022,-0.0004,0.0018,0.003,-0.0051,-0.0055,-0.0059,-0.0015,-0.0016,-0.001,-0.001,-0.001,-0.001,0,0.0322,0.0343,0.0354,0.0347,0.0344,0.0334,0.03,0.0283,0.0269,0.0234,0.0168,0.0119,0.0074,0.0025,0.0024,-0.0048,-0.0003,-0.0047,-0.0026,-0.0064,-0.0016,-0.0017,-0.001,-0.001,-0.001,-0.001,0,0,0.0325,0.0349,0.0354,0.0357,0.0338,0.0327,0.0289,0.0249,0.0228,0.0179,0.0139,0.0055,0.0058,0.0022,-0.002,-0.0071,-0.0069,-0.0046,-0.0048,0.002,-0.0089,-0.0121,-0.0123,-0.0115,-0.0116,-0.0117,-0.0026,0,0.0315,0.0321,0.0332,0.0318,0.0316,0.0304,0.0282,0.0238,0.0206,0.0167,0.009,0.0058,0.0043,0.0046,-0.0014,-0.0081,-0.0075,-0.0083,-0.0082,-0.008,-0.0087,-0.013,-0.0121,-0.0026,-0.0027,-0.0027,-0.0027,0,0.0302,0.0314,0.0321,0.0323,0.0329,0.0346,0.0325,0.0297,0.0232,0.0211,0.0154,0.0107,0.0029,0.0034,-0.0059,-0.0051,-0.0028,-0.0073,-0.0072,-0.0103,-0.0116,0.0005,-0.0027,-0.0027,-0.0027,-0.0027,-0.0027,0,0.0282,0.0298,0.0317,0.0315,0.0322,0.0367,0.0391,0.0348,0.0325,0.0278,0.0249,0.0144,0.0111,0.006,-0.001,-0.0006,-0.0104,-0.0122,-0.0116,-0.0114,-0.0107,-0.0105,-0.0127,-0.0127,-0.0128,-0.0128,-0.0128,0,0.0248,0.0262,0.0351,0.036,0.0419,0.0432,0.0477,0.0467,0.0441,0.0386,0.0326,0.023,0.0119,0.0029,0.0001,-0.0072,-0.008,-0.0103,-0.0116,-0.0102,-0.01,-0.0104,-0.0102,-0.0124,-0.0125,-0.0126,-0.0126,0,0.0207,0.0251,0.029,0.0372,0.0421,0.0488,0.0572,0.0569,0.0566,0.049,0.0487,0.0316,0.0184,0.0078,-0.0031,-0.0057,-0.0127,-0.0118,-0.0041,-0.0052,-0.0077,-0.0076,-0.0092,-0.0093,-0.0094,-0.0094,-0.0095,0,0.0171,0.02,0.0324,0.0382,0.0459,0.0565,0.062,0.0653,0.0625,0.0499,0.0438,0.0309,0.0185,0.0024,-0.0089,-0.0132,-0.0136,-0.0096,-0.0129,-0.0073,-0.0084,-0.0082,-0.0081,-0.0096,-0.0096,-0.0096,-0.0096,0,0.0124,0.0211,0.0255,0.0378,0.0493,0.0536,0.0627,0.0616,0.0589,0.0575,0.0407,0.0295,0.0129,-0.0018,-0.0039,-0.0088,-0.0115,-0.0103,-0.0101,-0.0132,-0.0078,-0.0087,-0.0085,-0.0099,-0.0099,-0.0098,-0.0098,0,0.0123,0.0158,0.0258,0.036,0.0442,0.0467,0.0536,0.0533,0.0527,0.0436,0.0362,0.0199,0.0116,0.0004,-0.0058,-0.0091,-0.0089,-0.0048,-0.0048,-0.0046,-0.0096,-0.0025,-0.0037,0,0,0,0,0,0.0135,0.0167,0.0223,0.0315,0.0367,0.0425,0.0477,0.0524,0.0522,0.0428,0.0414,0.0266,0.0121,0.0017,-0.0017,-0.0091,-0.0111,-0.013,-0.0067,-0.0113,-0.011,-0.0186,0,0,0,0,0,0,0.0138,0.0203,0.0204,0.0229,0.0272,0.0327,0.0358,0.0382,0.0345,0.0342,0.0261,0.0277,0.0126,0.0135,-0.0023,-0.0043,0.0002,-0.0184,-0.0184,-0.0115,-0.0112,-0.011,-0.0186,0,0,0,0,0]}]]